Погода Старое Баршино

Погода Старое Баршино : погода сейчас, прогноз погоды и архив. Всё, что Вы хотите узнать о погоде Старое Баршино!

Поиск расширенной информации на нашем сайте:

Другие новости

Новости СМИ2

Главная страница сайта

Новости сайта

03.07.2017

Напоминаем, что на нашем специализированном сайте Метеоцентр.Азия вы можете получить высокодетализированные автоматические прогнозы погоды по пунктам России, СНГ и мира в авиационном формате (включающие направление и скорость ветра, видимость, явления погоды, количество и форму облачности, нижнюю и верхнюю границу облачности).

Рекомендуем: ищете офис? Бизнес центр Капитал Тауэр в районе 1-я Тверская-Ямская улица с фотками и планировками

Погода Старое Баршино - сегодня

Время (UTC), дата Ветер
(°,м/с) 
Видим.   Явления Облачность Т
(°С)
Тd
(°С)
f(%) Тe
(°С)
Pmin
(гПа)
dP
(гПа)
Po
(мм)
O2
(г/м3)
Тmin Tmax R s Состояние
почвы
03 19.08.17 050 (СВ) 10 км    3/3 1000 м 
[Cu hum]
+15.2 +5.8 53 +15  1022.2  1.5  736  280           
06 19.08.17 340 (С) 10 км    6/6 1000 м 
[Cu med, cong]
+21.4 +4.1 32 +21  1021.4  736  274  +10         
09 19.08.17 340 (С) 10 км    8/8 1000 м 
[Cu med, cong]
+24.1 +2.1 24 +24  1020.3  -0.6  735  272           
12 19.08.17 070 (В) 10 км    6/4 1000 м верхняя 
[Cu med, cong|Ci sp]
+24.7 +0.6 21 +25  1019.9  -0.4  735  271           
15 19.08.17 020 (С) н/о    ясно 
+19.4 +1.7 31 +20  1022.1  1.4  736  277    +26.4       
18 19.08.17 360 (С) н/о    ясно 
+14.4 +2.1 43 +16  1023.4  0.6  737  282    +25.4       
21 19.08.17 020 (С) н/о    ясно 
+11.2 +2.9 57 +12  1023.8  737  285           
00 20.08.17 тихо ()   10 км    ясно 
+9.8 +3 63 +10  1023.3  -0.7  736  286           
03 20.08.17 тихо ()   10 км    ясно 
+14.5 +2.9 46 +15  1023.7  737  281           
06 20.08.17 360 (С) 10 км    1/1 1000 м 
[Cu hum]
+22 +0.9 25 +22  1022.8  0.2  737  275  +7.9         
09 20.08.17 050 (СВ) 10 км    3/3 1000 м 
[Cu hum]
+23.6 +1.5 23 +24  1021.5  -0.1  736  273           
12 20.08.17 тихо ()   10 км    ясно 
+24 +0.9 22 +24  1020.7  -0.6  736  272           
15 20.08.17 360 (С) н/о    ясно 
+22.2 +0.4 24 +22  1020.9  -0.1  736  274    +27       
18 20.08.17 360 (С) н/о    ясно 
+15.9 +1.7 38 +17  1022.8  736  280    +27       
21 20.08.17 360 (С) н/о    ясно 
+10.5 +0.4 50 +12  1022.8  -0.8  736  285           
00 21.08.17 тихо ()   н/о    ясно 
+8.7 +0.4 56 +9  1023.6  0.4  736  287           
03 21.08.17 тихо ()   10 км    ясно 
+16.3 +2.3 39 +16  1022.9  0.5  736  280           
06 21.08.17 180 (Ю) 10 км    3/0 верхняя 
[Ci fib]
+21 +0.4 25 +21  1021  -0.8  736  275  +0.8         
09 21.08.17 140 (ЮВ) 10 км    3/0 верхняя 
[Ci fib]
+25 -0.7 18 +25  1020.4  -0.4  735  272           
12 21.08.17 140 (ЮВ) 10 км    3/0 верхняя 
[Ci fib]
+25.7 -0.2 18 +26  1019.6  -0.8  735  271           
15 21.08.17 090 (В) н/о    ясно 
+21.9 +0.6 24 +22  1020  735  274    +28.5       
18 21.08.17 090 (В) н/о    ясно 
+16.2 +1.1 36 +17  1021.4  0.6  735  279    +28.5       
21 21.08.17 090 (В) н/о    ясно 
+14.1 +0.6 40 +14  1021.7  735  282           
00 22.08.17 090 (В) н/о    ясно 
+9.5 +1.5 57 +10  1022.4  735  286           
03 22.08.17 050 (СВ) 10 км    ясно 
+15.6 +3 43 +16  1023.5  737  280           
Время (UTC), дата Ветер
(°,м/с) 
Видим.   Явления Облачность Т
(°С)
Тd
(°С)
f(%) Тe
(°С)
Pmin
(гПа)
dP
(гПа)
Po
(мм)
O2
(г/м3)
Тmin Tmax R s Состояние
почвы

Для получения пояснительной информации подведите курсор к названию столбца.

ПОГОДА Старое Баршино - архив

Всё, что Вы хотите узнать о погоде Старое Баршино - удобно и подробно!

Выберите нужную дату (начиная с 1 января 2015* года) и нажмите кнопку "Найти".
Будут отображены архивные сводки погоды по пункту Старое Баршино, начиная с указанной даты.


Отображать данные в формате CSV (для использования в таблицах Excel)


Внимание! Наш архив погоды предназначен исключительно для личного некоммерческого использования в познавательных целях. Если Вам необходимы официальные справки о состоянии погоды (для производственных, юридических, коммерческих и т.п. целей), обращайтесь в органы Росгидромета.

*Примечание: данная дата относится к архиву по метеостанциям СССР (Россия, СНГ, Балтия).
Архив по метеостанциям Зарубежной Европы и Азии (кроме Китая) хранится 10 дней, по другим регионам земного шара (Китай, Африка, Америка, Австралия, Океания) - 1 день.

Старое Баршино - район местоположения метеостанции


Название, широта, долгота, высота метеостанции:
Старое Баршино 49.68°ш. 69.52°д. 357 м над ур. моря [Казахстан]

Дополнительная информация

В oтличие oт бoльшинства пoгoдных сайтoв мы публикуем пoдрoбную метеoинфoрмацию в детальнoм прoфессиoнальнoм фoрмате.

Характеристики температуры и влажнoсти вoздуха измеряются на высoте 2 м в тени вдали oт зданий и деревьев.
Скoрoсть ветра измеряется на высoте 10 м (на урoвне рoста челoвека скoрoсть ветра ниже в 1.5-2 раза). Если метеoстанция нахoдится в гoрoде или в лесу, тo скoрoсть ветра занижена на 2-4 м/с пo сравнению с oткрытым местoм. Скoрoсть ветра над акватoриями крупных рек и oзёр, а также на вершинах хoлмoв на 2-5 м/с выше, чем в oбычных услoвиях.
Атмoсфернoе давление в разных тoчках местнoсти мoжет значительнo oтличаться oт давления на метеoстанции, в зависимoсти oт услoвий рельефа (при пoдъёме на 10 м давление пoнижается примернo на 1 мм рт.ст.).